Location: Blackrock Ranger Station
(36.0936°N, 118.2611°W)
Time: 08:45:19
(UTC-07:00)

AO-7 - Pass Details

Date: 23 February 2026
Orbit: 1440 x 1458 km, 102.0° (Epoch: 15 March)

Event Time Altitude Azimuth Distance (km) Brightness Sun altitude
Rises 04:34:16 0° 38° (NE) 4,561 ? -24.3°
Reaches altitude 10° 04:38:59 10° 62° (ENE) 3,579 ? -23.3°
Maximum altitude 04:43:03 14° 92° (E) 3,250 ? -22.5°
Drops below altitude 10° 04:47:05 10° 121° (ESE) 3,573 ? -21.7°
Sets 04:51:43 0° 145° (SE) 4,546 ? -20.7°
